Location: Mason
(37.5237°N, 89.2543°W)
Time: 07:26:23
(UTC+00:00)

Cosmos 1634 Rocket - Pass Details

Date: 24 January 2021
Orbit: 961 x 991 km, 82.9° (Epoch: 08 March)

Event Time Altitude Azimuth Distance (km) Brightness Sun altitude
Rises 12:23:49 0° 204° (SSW) 3,629 6.9 -8.7°
Reaches altitude 10° 12:26:26 10° 210° (SSW) 2,686 6.2 -8.2°
Maximum altitude 12:32:14 44° 282° (WNW) 1,311 4.3 -7.1°
Drops below altitude 10° 12:38:07 10° 353° (N) 2,707 6.1 -6.0°
Sets 12:40:46 0° 0° (N) 3,660 6.8 -5.5°
